Showing default

SNUSAT-2, 43782

Orbit data source: Space-Track

SNUSAT-2, 43782 is a payload satellite owned by SNU (KR) in SSO that was launched on Mon, 03 Dec 2018 UTC via an FALCON 9 launch vehicle from the Air Force Western Test Range (AFWTR). Payload-class satellites include a variety of spacecraft equipped with specific instruments for various scientific and technological missions. These include communications satellites like Starlink; space stations such as the ISS; scientific satellites like the Hubble; Earth observation satellites from companies like Planet Labs, Umbra, and HawkEye 360; GPS; miniature CubeSats for education and research; and military/defense satellites.

Loading next visibility...
Identifier
43782, 2018-099AA
Orbit
SSO
Country
Flag of KRKR / SKOR
Related business
Manufacturer
SNU
Mission
Operational Amateur Technology
Bus & Motor
CUBESAT 3U, Unknown motor
Mass
4 kg wet, 4 kg dry
Launch date (UTC)
2018-12-03 (8 years ago)
Launch vehicle
FALCON 9
Launch site
Air Force Western Test Range (AFWTR)
Object type
Payload
Rocket body
Debris
Shape & HBR
Box, 0.1 m
Radar Cross Section
0.035 m², Medium (>0.1 m² and < 1m²)

Expand to show TLE details & history
Last TLE update: 2 days ago

TLE from 2 days ago
0 SNUSAT-2
1 43782U 18099AA  26171.09486323  .00006937  00000-0  30769-3 0  9996
2 43782  97.4055 224.4340 0008538 286.2337  73.7960 15.21873725413472
Epoch: 2026-06-20T02:16Z
TLE epoch observation values (Epoch: 2026-06-20T02:16:36.183Z)
Latitude
0.00005°
Longitude
-78.03118°
Altitude
501.647 km
Speed
7.614 km/s
True Right ascension
14h 57m 44s
True Declination
0° 00' 00"
Sunlit
Object was in full shadow at epoch
Visualization orbit readout
Latitude
Unknown
Longitude
Unknown
Altitude
Unknown
Speed
Unknown
Apparent Right ascension
Unknown
Apparent Declination
Unknown
Sunlit
N/A
Visualization observer readout
Local Sidereal Time
21:38:40
Azimuth
Unknown
Elevation
Unknown
Doppler factor
Unknown
Orbital elements
Apogee altitude
503.023 km
Perigee altitude
491.282 km
Semi-major axis
6,875.289 km
Eccentricity
0.00085
Inclination
97.4055°
RAAN
224.434°
Arg. of periapsis
286.2337°
True anomaly
73.88998°
Mean anomaly
73.796°
Eccentric anomaly
73.84299°
Mean motion
3.80721 °/min
Orbital period
94.56 mins
BSTAR
0.00030769
Loading maneuver chart data...
Computing Atmospheric mass density...
Loading historical data...
Loading historical data...
Loading historical data...
Loading historical data...
Loading historical data...
Loading historical data...
Loading historical data...

Documentation

Showing up to 5 results
|